This is the latest recevied weather packets stored in our database for station/object KF6FPU-15. If no packets are shown the sender has not sent any weather packets the latest 10 day(s).
| Time | Temp. | Humidity | Pressure | Rain* | Wind** | Luminosity | Snow |
|---|---|---|---|---|---|---|---|
| 1777706509 | 24.44° C | 20% | 1012.3 hPa | - | - | - | - |
| 1777705309 | 25° C | 20% | 1012.3 hPa | - | - | - | - |
| 1777704709 | 24.44° C | 20% | 1012.2 hPa | - | - | - | - |
| 1777704109 | 25° C | 20% | 1012.2 hPa | - | - | - | - |
| 1777703509 | 25° C | 20% | 1012.1 hPa | - | - | - | - |
| 1777702909 | 25.56° C | 19% | 1012.2 hPa | - | - | - | - |
| 1777702309 | 25° C | 20% | 1012.3 hPa | - | - | - | - |
| 1777701709 | 25.56° C | 19% | 1012.4 hPa | - | - | - | - |
| 1777701109 | 26.67° C | 19% | 1012.3 hPa | - | - | - | - |
| 1777700509 | 26.67° C | 19% | 1012.2 hPa | - | - | - | - |
| 1777699909 | 26.11° C | 19% | 1012.1 hPa | - | - | - | - |
| 1777698709 | 25.56° C | 20% | 1012.1 hPa | - | - | - | - |
| 1777698109 | 25° C | 20% | 1012 hPa | - | - | - | - |
| 1777697509 | 25° C | 20% | 1012 hPa | - | - | - | - |
| 1777696909 | 25.56° C | 20% | 1012 hPa | - | - | - | - |
| 1777696309 | 26.11° C | 19% | 1011.9 hPa | - | - | - | - |
| 1777695709 | 26.11° C | 19% | 1011.8 hPa | - | - | - | - |
| 1777695109 | 26.67° C | 19% | 1011.5 hPa | - | - | - | - |
| 1777694509 | 25.56° C | 20% | 1011.4 hPa | - | - | - | - |
| 1777693909 | 26.11° C | 20% | 1011.3 hPa | - | - | - | - |
| 1777693309 | 26.11° C | 20% | 1011.2 hPa | - | - | - | - |
| 1777692109 | 28.33° C | 20% | 1010.9 hPa | - | - | - | - |
| 1777691509 | 28.33° C | 21% | 1010.9 hPa | - | - | - | - |
| 1777690909 | 28.33° C | 21% | 1010.8 hPa | - | - | - | - |
| 1777690309 | 27.78° C | 20% | 1010.6 hPa | - | - | - | - |
* Rain since midnight (hover to see other rain measurements)
** Current wind speed in m/s (hover to see current wind gust speed)